Time,TemperatureF,DewpointF,PressureIn,WindDirection,WindDirectionDegrees,WindSpeedMPH,WindSpeedGustMPH,Humidity,HourlyPrecipIn,Conditions,Clouds,dailyrainin,SoftwareType,DateUTC
2013-03-13 00:00:00,32.2,31.4,27.96,NW,315,0.0,0.0,97,0.00,,---,0.00,VWS V14.01,2013-03-13 04:00:00,
2013-03-13 00:05:00,32.2,30.9,27.96,WNW,292,0.0,0.0,95,0.00,,---,0.00,VWS V14.01,2013-03-13 04:05:00,
2013-03-13 00:10:00,32.2,30.4,27.96,WNW,292,0.0,0.0,93,0.00,,---,0.00,VWS V14.01,2013-03-13 04:10:00,
2013-03-13 00:15:00,32.4,29.8,27.96,NW,315,0.0,0.0,90,0.00,,---,0.00,VWS V14.01,2013-03-13 04:15:00,
2013-03-13 00:20:00,32.2,29.6,27.96,NNW,338,0.0,0.0,90,0.00,,---,0.00,VWS V14.01,2013-03-13 04:20:00,
2013-03-13 00:25:00,32.2,29.3,27.96,NNW,338,0.0,0.0,89,0.00,,---,0.00,VWS V14.01,2013-03-13 04:25:00,
2013-03-13 00:30:00,32.2,29.3,27.96,NNW,338,0.0,0.0,89,0.00,,---,0.00,VWS V14.01,2013-03-13 04:30:00,
2013-03-13 00:35:00,32.2,29.6,27.96,WNW,292,0.0,0.0,90,0.00,,---,0.00,VWS V14.01,2013-03-13 04:35:00,
2013-03-13 00:40:00,32.2,29.6,27.96,WNW,292,0.0,0.0,90,0.00,,---,0.00,VWS V14.01,2013-03-13 04:40:00,
2013-03-13 00:45:00,32.2,29.6,27.96,WNW,292,0.0,0.0,90,0.00,,---,0.00,VWS V14.01,2013-03-13 04:45:00,
2013-03-13 00:50:00,32.2,29.9,27.96,WNW,292,0.0,0.0,91,0.00,,---,0.00,VWS V14.01,2013-03-13 04:50:00,
2013-03-13 00:55:00,32.2,29.6,27.96,NNW,338,0.0,0.0,90,0.00,,---,0.00,VWS V14.01,2013-03-13 04:55:00,
2013-03-13 01:00:00,32.2,29.3,27.96,WNW,292,0.0,0.0,89,0.00,,---,0.00,VWS V14.01,2013-03-13 05:00:00,
2013-03-13 01:05:00,32.2,29.3,27.96,WNW,292,0.0,0.0,89,0.00,,---,0.00,VWS V14.01,2013-03-13 05:05:00,
2013-03-13 01:10:00,31.8,29.0,27.96,WNW,292,0.0,0.0,89,0.00,,---,0.00,VWS V14.01,2013-03-13 05:10:00,
2013-03-13 01:15:00,31.6,28.2,27.96,WSW,248,0.0,0.0,87,0.00,,---,0.00,VWS V14.01,2013-03-13 05:15:00,
2013-03-13 01:20:00,31.3,27.9,27.96,WNW,292,0.0,0.0,87,0.00,,---,0.00,VWS V14.01,2013-03-13 05:20:00,
2013-03-13 01:25:00,31.1,28.0,27.96,WNW,292,0.0,0.0,88,0.00,,---,0.00,VWS V14.01,2013-03-13 05:25:00,
2013-03-13 01:30:00,30.9,28.1,27.96,NW,315,0.0,0.0,89,0.00,,---,0.00,VWS V14.01,2013-03-13 05:30:00,
2013-03-13 01:35:00,30.7,27.9,27.96,West,270,0.0,0.0,89,0.00,,---,0.00,VWS V14.01,2013-03-13 05:35:00,
2013-03-13 01:40:00,30.7,27.9,27.96,WNW,292,0.0,0.0,89,0.00,,---,0.00,VWS V14.01,2013-03-13 05:40:00,
2013-03-13 01:45:00,30.6,28.0,27.96,NW,315,0.0,0.0,90,0.00,,---,0.00,VWS V14.01,2013-03-13 05:45:00,
2013-03-13 01:50:00,30.4,27.8,27.96,NW,315,0.0,0.0,90,0.00,,---,0.00,VWS V14.01,2013-03-13 05:50:00,
2013-03-13 01:55:00,30.4,27.8,27.96,WNW,292,0.0,0.0,90,0.00,,---,0.00,VWS V14.01,2013-03-13 05:55:00,
2013-03-13 02:00:00,30.6,28.0,27.96,NW,315,0.0,0.0,90,0.00,,---,0.00,VWS V14.01,2013-03-13 06:00:00,
2013-03-13 02:05:00,30.6,28.0,27.96,WSW,248,0.0,0.0,90,0.00,,---,0.00,VWS V14.01,2013-03-13 06:05:00,
2013-03-13 02:10:00,30.6,27.7,27.96,WNW,292,0.0,0.0,89,0.00,,---,0.00,VWS V14.01,2013-03-13 06:10:00,
2013-03-13 02:15:00,30.4,27.3,27.96,NNW,338,0.0,0.0,88,0.00,,---,0.00,VWS V14.01,2013-03-13 06:15:00,
2013-03-13 02:20:00,30.4,27.3,27.96,NNW,338,0.0,0.0,88,0.00,,---,0.00,VWS V14.01,2013-03-13 06:20:00,
2013-03-13 02:25:00,30.2,27.1,27.96,West,270,0.0,0.0,88,0.00,,---,0.00,VWS V14.01,2013-03-13 06:25:00,
2013-03-13 02:30:00,30.2,27.4,27.96,WNW,292,0.0,0.0,89,0.00,,---,0.00,VWS V14.01,2013-03-13 06:30:00,
2013-03-13 02:35:00,29.8,27.0,27.96,WNW,292,0.0,0.0,89,0.00,,---,0.00,VWS V14.01,2013-03-13 06:35:00,
2013-03-13 02:40:00,29.8,27.0,27.96,WSW,248,0.0,0.0,89,0.00,,---,0.00,VWS V14.01,2013-03-13 06:40:00,
2013-03-13 02:45:00,30.0,26.9,27.96,NNW,338,0.0,0.0,88,0.00,,---,0.00,VWS V14.01,2013-03-13 06:45:00,
2013-03-13 02:50:00,29.8,26.7,27.96,WNW,292,0.0,0.0,88,0.00,,---,0.00,VWS V14.01,2013-03-13 06:50:00,
2013-03-13 02:55:00,30.0,26.9,27.96,WNW,292,0.0,0.0,88,0.00,,---,0.00,VWS V14.01,2013-03-13 06:55:00,
2013-03-13 03:00:00,29.8,26.7,27.96,NW,315,0.0,0.0,88,0.00,,---,0.00,VWS V14.01,2013-03-13 07:00:00,
2013-03-13 03:05:00,29.7,26.5,27.96,WNW,292,0.0,0.0,88,0.00,,---,0.00,VWS V14.01,2013-03-13 07:05:00,
2013-03-13 03:10:00,29.7,26.5,27.96,WNW,292,0.0,0.0,88,0.00,,---,0.00,VWS V14.01,2013-03-13 07:10:00,
2013-03-13 03:15:00,29.7,26.3,27.96,West,270,0.0,0.0,87,0.00,,---,0.00,VWS V14.01,2013-03-13 07:15:00,
2013-03-13 03:20:00,29.7,26.3,27.96,West,270,0.0,0.0,87,0.00,,---,0.00,VWS V14.01,2013-03-13 07:20:00,
2013-03-13 03:25:00,29.5,26.1,27.96,WNW,292,0.0,0.0,87,0.00,,---,0.00,VWS V14.01,2013-03-13 07:25:00,
2013-03-13 03:30:00,29.5,26.1,27.96,NNW,338,0.0,0.0,87,0.00,,---,0.00,VWS V14.01,2013-03-13 07:30:00,
2013-03-13 03:35:00,29.5,26.1,27.96,WSW,248,0.0,0.0,87,0.00,,---,0.00,VWS V14.01,2013-03-13 07:35:00,
2013-03-13 03:40:00,29.5,25.8,27.96,WNW,292,0.0,0.0,86,0.00,,---,0.00,VWS V14.01,2013-03-13 07:40:00,
2013-03-13 03:45:00,29.5,25.5,27.96,NW,315,0.0,0.0,85,0.00,,---,0.00,VWS V14.01,2013-03-13 07:45:00,
2013-03-13 03:50:00,29.5,25.2,27.96,WNW,292,0.0,0.0,84,0.00,,---,0.00,VWS V14.01,2013-03-13 07:50:00,
2013-03-13 03:55:00,29.3,25.1,27.96,NW,315,0.0,0.0,84,0.00,,---,0.00,VWS V14.01,2013-03-13 07:55:00,
2013-03-13 04:00:00,29.1,24.9,27.96,WNW,292,0.0,0.0,84,0.00,,---,0.00,VWS V14.01,2013-03-13 08:00:00,
2013-03-13 04:06:00,28.9,25.0,27.96,WNW,292,0.0,0.0,85,0.00,,---,0.00,VWS V14.01,2013-03-13 08:06:00,
2013-03-13 04:11:00,28.9,25.3,27.96,NW,315,0.0,0.0,86,0.00,,---,0.00,VWS V14.01,2013-03-13 08:11:00,
2013-03-13 04:16:00,28.8,25.1,27.96,NNW,338,0.0,0.0,86,0.00,,---,0.00,VWS V14.01,2013-03-13 08:16:00,
2013-03-13 04:21:00,28.9,25.0,27.96,NW,315,0.0,0.0,85,0.00,,---,0.00,VWS V14.01,2013-03-13 08:21:00,
2013-03-13 04:26:00,29.1,24.9,27.96,NW,315,0.0,0.0,84,0.00,,---,0.00,VWS V14.01,2013-03-13 08:26:00,
2013-03-13 04:31:00,28.9,24.7,27.96,WNW,292,0.0,0.0,84,0.00,,---,0.00,VWS V14.01,2013-03-13 08:31:00,
2013-03-13 04:36:00,29.3,24.5,27.96,NW,315,0.0,0.0,82,0.00,,---,0.00,VWS V14.01,2013-03-13 08:36:00,
2013-03-13 04:41:00,29.1,24.3,27.96,NNW,338,0.0,0.0,82,0.00,,---,0.00,VWS V14.01,2013-03-13 08:41:00,
2013-03-13 04:46:00,28.9,24.1,27.96,NW,315,0.0,0.0,82,0.00,,---,0.00,VWS V14.01,2013-03-13 08:46:00,
2013-03-13 04:51:00,28.9,24.1,27.96,WNW,292,0.0,0.0,82,0.00,,---,0.00,VWS V14.01,2013-03-13 08:51:00,
2013-03-13 04:56:00,28.8,24.0,27.96,NNW,338,0.0,0.0,82,0.00,,---,0.00,VWS V14.01,2013-03-13 08:56:00,
2013-03-13 05:02:00,28.6,24.1,27.96,WNW,292,0.0,0.0,83,0.00,,---,0.00,VWS V14.01,2013-03-13 09:02:00,
2013-03-13 05:07:00,28.6,24.4,27.96,WNW,292,0.0,0.0,84,0.00,,---,0.00,VWS V14.01,2013-03-13 09:07:00,
2013-03-13 05:12:00,28.8,24.3,27.96,WNW,292,0.0,0.0,83,0.00,,---,0.00,VWS V14.01,2013-03-13 09:12:00,
2013-03-13 05:17:00,28.6,24.1,27.96,NW,315,0.0,0.0,83,0.00,,---,0.00,VWS V14.01,2013-03-13 09:17:00,
2013-03-13 05:22:00,28.4,24.2,27.96,WNW,292,0.0,0.0,84,0.00,,---,0.00,VWS V14.01,2013-03-13 09:22:00,
2013-03-13 05:27:00,28.2,24.3,27.96,NNW,338,0.0,0.0,85,0.00,,---,0.00,VWS V14.01,2013-03-13 09:27:00,
2013-03-13 05:32:00,28.0,24.4,27.96,NNW,338,0.0,0.0,86,0.00,,---,0.00,VWS V14.01,2013-03-13 09:32:00,
2013-03-13 05:37:00,28.2,24.9,27.93,NW,315,0.0,0.0,87,0.00,,---,0.00,VWS V14.01,2013-03-13 09:37:00,
2013-03-13 05:42:00,28.0,24.7,27.93,NW,315,0.0,0.0,87,0.00,,---,0.00,VWS V14.01,2013-03-13 09:42:00,
2013-03-13 05:47:00,28.0,24.4,27.96,West,270,0.0,0.0,86,0.00,,---,0.00,VWS V14.01,2013-03-13 09:47:00,
2013-03-13 05:52:00,28.0,24.4,27.96,NW,315,0.0,0.0,86,0.00,,---,0.00,VWS V14.01,2013-03-13 09:52:00,
2013-03-13 05:57:00,28.0,24.4,27.96,WSW,248,0.0,0.0,86,0.00,,---,0.00,VWS V14.01,2013-03-13 09:57:00,
2013-03-13 06:02:00,28.0,24.4,27.96,NNE,22,0.0,0.0,86,0.00,,---,0.00,VWS V14.01,2013-03-13 10:02:00,
2013-03-13 06:07:00,28.0,24.4,27.96,WNW,292,0.0,0.0,86,0.00,,---,0.00,VWS V14.01,2013-03-13 10:07:00,
2013-03-13 06:12:00,28.2,24.3,27.96,WNW,292,0.0,0.0,85,0.00,,---,0.00,VWS V14.01,2013-03-13 10:12:00,
2013-03-13 06:17:00,28.2,24.0,27.96,WNW,292,0.0,0.0,84,0.00,,---,0.00,VWS V14.01,2013-03-13 10:17:00,
2013-03-13 06:22:00,28.0,23.8,27.96,WNW,292,0.0,0.0,84,0.00,,---,0.00,VWS V14.01,2013-03-13 10:22:00,
2013-03-13 06:27:00,28.0,23.5,27.96,WNW,292,0.0,0.0,83,0.00,,---,0.00,VWS V14.01,2013-03-13 10:27:00,
2013-03-13 06:32:00,27.9,23.7,27.96,WNW,292,0.0,0.0,84,0.00,,---,0.00,VWS V14.01,2013-03-13 10:32:00,
2013-03-13 06:37:00,27.9,23.7,27.96,WNW,292,0.0,0.0,84,0.00,,---,0.00,VWS V14.01,2013-03-13 10:37:00,
2013-03-13 06:42:00,27.7,23.8,27.96,NW,315,0.0,0.0,85,0.00,,---,0.00,VWS V14.01,2013-03-13 10:42:00,
2013-03-13 06:47:00,27.7,24.0,27.96,WNW,292,0.0,0.0,86,0.00,,---,0.00,VWS V14.01,2013-03-13 10:47:00,
2013-03-13 06:52:00,27.5,23.9,27.96,NNW,338,0.0,0.0,86,0.00,,---,0.00,VWS V14.01,2013-03-13 10:52:00,
2013-03-13 06:57:00,27.5,23.9,27.96,NNW,338,0.0,0.0,86,0.00,,---,0.00,VWS V14.01,2013-03-13 10:57:00,
2013-03-13 07:02:00,27.5,23.9,27.96,NNW,338,0.0,0.0,86,0.00,,---,0.00,VWS V14.01,2013-03-13 11:02:00,
2013-03-13 07:07:00,27.5,23.9,27.96,NNE,22,0.0,0.0,86,0.00,,---,0.00,VWS V14.01,2013-03-13 11:07:00,
2013-03-13 07:12:00,27.5,23.9,27.96,WNW,292,0.0,0.0,86,0.00,,---,0.00,VWS V14.01,2013-03-13 11:12:00,
2013-03-13 07:17:00,27.7,23.8,27.96,NNW,338,0.0,0.0,85,0.00,,---,0.00,VWS V14.01,2013-03-13 11:17:00,
2013-03-13 07:22:00,27.7,23.8,27.96,NNW,338,0.0,0.0,85,0.00,,---,0.00,VWS V14.01,2013-03-13 11:22:00,
2013-03-13 07:27:00,27.9,23.7,27.96,WNW,292,0.0,0.0,84,0.00,,---,0.00,VWS V14.01,2013-03-13 11:27:00,
2013-03-13 07:32:00,28.0,23.8,27.96,NNW,338,0.0,0.0,84,0.00,,---,0.00,VWS V14.01,2013-03-13 11:32:00,
2013-03-13 07:37:00,28.6,24.1,27.96,NNW,338,0.0,0.0,83,0.00,,---,0.00,VWS V14.01,2013-03-13 11:37:00,
2013-03-13 07:42:00,28.8,24.3,27.96,WNW,292,0.0,0.0,83,0.00,,---,0.00,VWS V14.01,2013-03-13 11:42:00,
2013-03-13 07:47:00,28.9,23.6,27.96,NNW,338,0.0,0.0,80,0.00,,---,0.00,VWS V14.01,2013-03-13 11:47:00,
2013-03-13 07:52:00,29.1,23.7,27.96,NNW,338,0.0,0.0,80,0.00,,---,0.00,VWS V14.01,2013-03-13 11:52:00,
2013-03-13 07:57:00,29.3,23.9,27.96,NNE,22,0.0,0.0,80,0.00,,---,0.00,VWS V14.01,2013-03-13 11:57:00,
2013-03-13 08:02:00,29.3,23.9,27.96,WNW,292,0.0,0.0,80,0.00,,---,0.00,VWS V14.01,2013-03-13 12:02:00,
2013-03-13 08:07:00,29.5,23.8,27.96,WNW,292,0.0,0.0,79,0.00,,---,0.00,VWS V14.01,2013-03-13 12:07:00,
2013-03-13 08:12:00,29.5,23.8,27.96,NNW,338,0.0,0.0,79,0.00,,---,0.00,VWS V14.01,2013-03-13 12:12:00,
2013-03-13 08:17:00,29.7,24.0,27.96,NNW,338,0.0,0.0,79,0.00,,---,0.00,VWS V14.01,2013-03-13 12:17:00,
2013-03-13 08:22:00,29.8,24.1,27.96,WNW,292,0.0,0.0,79,0.00,,---,0.00,VWS V14.01,2013-03-13 12:22:00,
2013-03-13 08:27:00,30.0,24.3,27.96,NNW,338,0.0,0.0,79,0.00,,---,0.00,VWS V14.01,2013-03-13 12:27:00,
2013-03-13 08:32:00,30.2,24.2,27.96,NNW,338,0.0,0.0,78,0.00,,---,0.00,VWS V14.01,2013-03-13 12:32:00,
2013-03-13 08:37:00,30.6,24.5,27.96,NNW,338,0.0,0.0,78,0.00,,---,0.00,VWS V14.01,2013-03-13 12:37:00,
2013-03-13 08:42:00,30.9,24.9,27.96,NNW,338,0.0,0.0,78,0.00,,---,0.00,VWS V14.01,2013-03-13 12:42:00,
2013-03-13 08:47:00,31.1,25.0,27.96,NNW,338,0.0,0.0,78,0.00,,---,0.00,VWS V14.01,2013-03-13 12:47:00,
2013-03-13 08:52:00,31.1,24.8,27.96,NW,315,0.0,0.0,77,0.00,,---,0.00,VWS V14.01,2013-03-13 12:52:00,
2013-03-13 08:57:00,31.5,24.8,27.96,NNW,338,0.0,0.0,76,0.00,,---,0.00,VWS V14.01,2013-03-13 12:57:00,
2013-03-13 09:02:00,31.8,25.1,27.96,NW,315,0.0,0.0,76,0.00,,---,0.00,VWS V14.01,2013-03-13 13:02:00,
2013-03-13 09:07:00,32.2,25.2,27.93,WNW,292,0.0,0.0,75,0.00,,---,0.00,VWS V14.01,2013-03-13 13:07:00,
2013-03-13 09:12:00,32.2,24.5,27.93,WNW,292,0.0,0.0,73,0.00,,---,0.00,VWS V14.01,2013-03-13 13:12:00,
2013-03-13 09:17:00,32.4,24.7,27.96,WNW,292,0.0,0.0,73,0.00,,---,0.00,VWS V14.01,2013-03-13 13:17:00,
2013-03-13 09:22:00,33.1,25.7,27.96,WNW,292,0.0,0.0,74,0.00,,---,0.00,VWS V14.01,2013-03-13 13:22:00,
2013-03-13 09:27:00,33.3,26.2,27.96,NW,315,0.0,0.0,75,0.00,,---,0.00,VWS V14.01,2013-03-13 13:27:00,
2013-03-13 09:32:00,33.3,25.6,27.96,NNW,338,0.0,0.0,73,0.00,,---,0.00,VWS V14.01,2013-03-13 13:32:00,
2013-03-13 09:37:00,33.4,25.4,27.96,WNW,292,0.0,0.0,72,0.00,,---,0.00,VWS V14.01,2013-03-13 13:37:00,
2013-03-13 09:42:00,33.4,25.1,27.96,WNW,292,0.0,0.0,71,0.00,,---,0.00,VWS V14.01,2013-03-13 13:42:00,
2013-03-13 09:47:00,34.5,25.8,27.96,NNW,338,0.0,0.0,70,0.00,,---,0.00,VWS V14.01,2013-03-13 13:47:00,
2013-03-13 09:52:00,34.2,24.4,27.96,WNW,292,0.0,0.9,67,0.00,,---,0.00,VWS V14.01,2013-03-13 13:52:00,
2013-03-13 09:57:00,34.0,24.2,27.96,NNW,338,0.0,0.0,67,0.00,,---,0.00,VWS V14.01,2013-03-13 13:57:00,
2013-03-13 10:02:00,34.0,24.9,27.96,North,0,0.0,0.0,69,0.00,,---,0.00,VWS V14.01,2013-03-13 14:02:00,
2013-03-13 10:07:00,34.3,25.2,27.96,NNW,338,0.0,0.0,69,0.00,,---,0.00,VWS V14.01,2013-03-13 14:07:00,
2013-03-13 10:12:00,33.6,24.2,27.96,SSW,202,2.5,2.5,68,0.00,,---,0.00,VWS V14.01,2013-03-13 14:12:00,
2013-03-13 10:17:00,33.6,24.5,27.93,WNW,292,0.0,0.0,69,0.00,,---,0.00,VWS V14.01,2013-03-13 14:17:00,
2013-03-13 15:00:00,40.8,17.8,27.90,NNW,338,4.9,5.8,39,0.00,,---,0.00,VWS V14.01,2013-03-13 19:00:00,
2013-03-13 15:05:00,41.5,17.8,27.90,WSW,248,7.8,7.8,38,0.00,,---,0.00,VWS V14.01,2013-03-13 19:05:00,
2013-03-13 15:10:00,41.0,17.4,27.90,WSW,248,7.2,7.2,38,0.00,,---,0.00,VWS V14.01,2013-03-13 19:10:00,
2013-03-13 15:15:00,40.3,16.7,27.90,WNW,292,6.0,6.0,38,0.00,,---,0.00,VWS V14.01,2013-03-13 19:15:00,
2013-03-13 15:20:00,39.6,16.7,27.90,WNW,292,4.0,4.9,39,0.00,,---,0.00,VWS V14.01,2013-03-13 19:20:00,
2013-03-13 15:25:00,38.8,16.6,27.90,WNW,292,3.4,4.9,40,0.00,,---,0.00,VWS V14.01,2013-03-13 19:25:00,
2013-03-13 15:30:00,43.0,19.7,27.90,WNW,292,4.7,6.0,39,0.00,,---,0.00,VWS V14.01,2013-03-13 19:30:00,
2013-03-13 15:35:00,43.5,19.6,27.88,NNE,22,7.6,7.6,38,0.00,,---,0.00,VWS V14.01,2013-03-13 19:35:00,
2013-03-13 15:40:00,43.7,17.2,27.88,WNW,292,2.7,4.3,34,0.00,,---,0.00,VWS V14.01,2013-03-13 19:40:00,
2013-03-13 15:45:00,42.3,14.5,27.88,NW,315,0.0,5.6,32,0.00,,---,0.00,VWS V14.01,2013-03-13 19:45:00,
2013-03-13 15:50:00,43.9,16.7,27.85,WSW,248,0.0,2.9,33,0.00,,---,0.00,VWS V14.01,2013-03-13 19:50:00,
2013-03-13 15:55:00,42.6,16.2,27.85,NNW,338,2.7,3.8,34,0.00,,---,0.00,VWS V14.01,2013-03-13 19:55:00,
2013-03-13 16:00:00,39.7,15.0,27.85,NNW,338,3.1,6.0,36,0.00,,---,0.00,VWS V14.01,2013-03-13 20:00:00,
2013-03-13 16:05:00,41.7,16.8,27.85,NW,315,8.5,8.5,36,0.00,,---,0.00,VWS V14.01,2013-03-13 20:05:00,
2013-03-13 16:10:00,43.3,19.5,27.85,NNW,338,0.0,0.0,38,0.00,,---,0.00,VWS V14.01,2013-03-13 20:10:00,
2013-03-13 16:15:00,42.3,16.6,27.85,NNW,338,2.5,2.5,35,0.00,,---,0.00,VWS V14.01,2013-03-13 20:15:00,
2013-03-13 16:20:00,41.2,15.0,27.85,NNW,338,3.6,4.0,34,0.00,,---,0.00,VWS V14.01,2013-03-13 20:20:00,
2013-03-13 16:25:00,43.2,15.3,27.85,NNE,22,4.3,6.3,32,0.00,,---,0.00,VWS V14.01,2013-03-13 20:25:00,
2013-03-13 16:30:00,43.9,16.7,27.85,ENE,68,0.0,0.0,33,0.00,,---,0.00,VWS V14.01,2013-03-13 20:30:00,
2013-03-13 16:35:00,42.4,14.7,27.85,NW,315,0.0,3.4,32,0.00,,---,0.00,VWS V14.01,2013-03-13 20:35:00,
2013-03-13 16:40:00,41.0,14.8,27.85,WNW,292,4.7,4.7,34,0.00,,---,0.00,VWS V14.01,2013-03-13 20:40:00,
2013-03-13 16:45:00,39.7,13.7,27.85,WNW,292,0.0,3.4,34,0.00,,---,0.00,VWS V14.01,2013-03-13 20:45:00,
2013-03-13 16:50:00,38.7,14.6,27.85,South,180,3.6,4.3,37,0.00,,---,0.00,VWS V14.01,2013-03-13 20:50:00,
2013-03-13 16:55:00,38.1,14.8,27.85,NNW,338,4.3,6.3,38,0.00,,---,0.00,VWS V14.01,2013-03-13 20:55:00,
2013-03-13 17:00:00,38.3,16.1,27.85,West,270,2.9,2.9,40,0.00,,---,0.00,VWS V14.01,2013-03-13 21:00:00,
2013-03-13 17:05:00,38.7,15.9,27.85,NW,315,0.0,3.6,39,0.00,,---,0.00,VWS V14.01,2013-03-13 21:05:00,
2013-03-13 17:10:00,39.2,16.3,27.85,NW,315,0.0,1.3,39,0.00,,---,0.00,VWS V14.01,2013-03-13 21:10:00,
2013-03-13 17:15:00,38.7,16.4,27.85,NNW,338,0.0,3.8,40,0.00,,---,0.00,VWS V14.01,2013-03-13 21:15:00,
2013-03-13 17:20:00,37.9,15.8,27.85,WNW,292,4.0,4.0,40,0.00,,---,0.00,VWS V14.01,2013-03-13 21:20:00,
2013-03-13 17:25:00,37.2,16.3,27.85,NNW,338,0.0,0.0,42,0.00,,---,0.00,VWS V14.01,2013-03-13 21:25:00,
2013-03-13 17:30:00,36.7,16.8,27.85,NNW,338,0.0,2.2,44,0.00,,---,0.00,VWS V14.01,2013-03-13 21:30:00,
2013-03-13 17:35:00,36.0,17.2,27.82,WNW,292,0.0,3.1,46,0.00,,---,0.00,VWS V14.01,2013-03-13 21:35:00,
2013-03-13 17:40:00,35.6,16.9,27.82,NNW,338,0.0,2.7,46,0.00,,---,0.00,VWS V14.01,2013-03-13 21:40:00,
2013-03-13 17:45:00,35.4,18.2,27.82,WNW,292,0.0,0.0,49,0.00,,---,0.00,VWS V14.01,2013-03-13 21:45:00,
2013-03-13 17:50:00,35.2,18.5,27.85,NW,315,0.0,1.3,50,0.00,,---,0.00,VWS V14.01,2013-03-13 21:50:00,
2013-03-13 17:55:00,34.5,20.0,27.85,NNW,338,5.8,9.8,55,0.00,,---,0.00,VWS V14.01,2013-03-13 21:55:00,
2013-03-13 18:00:00,33.8,20.2,27.85,NW,315,0.0,0.0,57,0.00,,---,0.00,VWS V14.01,2013-03-13 22:00:00,
2013-03-13 18:05:00,33.3,21.3,27.85,WNW,292,0.0,0.0,61,0.00,,---,0.00,VWS V14.01,2013-03-13 22:05:00,
2013-03-13 18:10:00,33.3,21.3,27.85,NNW,338,0.0,0.0,61,0.00,,---,0.00,VWS V14.01,2013-03-13 22:10:00,
2013-03-13 18:15:00,33.1,21.9,27.85,NW,315,2.0,2.0,63,0.00,,---,0.00,VWS V14.01,2013-03-13 22:15:00,
2013-03-13 18:20:00,32.9,22.1,27.88,NNW,338,2.9,2.9,64,0.00,,---,0.00,VWS V14.01,2013-03-13 22:20:00,
2013-03-13 18:25:00,32.5,22.8,27.88,NNW,338,5.4,5.4,67,0.00,,---,0.00,VWS V14.01,2013-03-13 22:25:00,
2013-03-13 18:30:00,32.2,23.2,27.88,WSW,248,0.0,0.0,69,0.00,,---,0.00,VWS V14.01,2013-03-13 22:30:00,
2013-03-13 18:35:00,31.8,23.2,27.88,SSW,202,0.0,0.0,70,0.00,,---,0.00,VWS V14.01,2013-03-13 22:35:00,
2013-03-13 18:40:00,31.6,24.0,27.88,WSW,248,0.0,0.0,73,0.00,,---,0.00,VWS V14.01,2013-03-13 22:40:00,
2013-03-13 18:45:00,31.3,24.3,27.88,NE,45,2.7,2.7,75,0.00,,---,0.00,VWS V14.01,2013-03-13 22:45:00,
2013-03-13 18:50:00,30.7,25.0,27.90,WNW,292,0.0,0.0,79,0.00,,---,0.00,VWS V14.01,2013-03-13 22:50:00,
2013-03-13 18:55:00,30.4,24.7,27.90,North,0,0.0,0.0,79,0.00,,---,0.00,VWS V14.01,2013-03-13 22:55:00,
2013-03-13 19:00:00,30.2,24.8,27.90,WNW,292,0.9,0.9,80,0.00,,---,0.00,VWS V14.01,2013-03-13 23:00:00,
2013-03-13 19:05:00,30.0,25.2,27.90,WNW,292,0.0,0.0,82,0.00,,---,0.00,VWS V14.01,2013-03-13 23:05:00,
2013-03-13 19:10:00,30.0,24.9,27.90,WNW,292,0.0,0.0,81,0.00,,---,0.00,VWS V14.01,2013-03-13 23:10:00,
2013-03-13 19:15:00,30.0,25.2,27.90,SE,135,0.0,0.0,82,0.00,,---,0.00,VWS V14.01,2013-03-13 23:15:00,
2013-03-13 19:20:00,30.0,26.4,27.90,WNW,292,0.0,0.0,86,0.00,,---,0.00,VWS V14.01,2013-03-13 23:20:00,
2013-03-13 19:25:00,29.8,26.5,27.90,NNE,22,0.0,0.0,87,0.00,,---,0.00,VWS V14.01,2013-03-13 23:25:00,
2013-03-13 19:30:00,29.5,26.4,27.90,NW,315,0.0,0.0,88,0.00,,---,0.00,VWS V14.01,2013-03-13 23:30:00,
2013-03-13 19:35:00,29.1,25.7,27.90,WNW,292,0.0,1.6,87,0.00,,---,0.00,VWS V14.01,2013-03-13 23:35:00,
2013-03-13 19:40:00,28.8,25.4,27.90,West,270,0.0,0.0,87,0.00,,---,0.00,VWS V14.01,2013-03-13 23:40:00,
2013-03-13 19:45:00,28.6,25.5,27.90,WNW,292,0.0,0.0,88,0.00,,---,0.00,VWS V14.01,2013-03-13 23:45:00,
2013-03-13 19:50:00,28.6,25.8,27.90,WNW,292,0.0,0.0,89,0.00,,---,0.00,VWS V14.01,2013-03-13 23:50:00,
2013-03-13 19:55:00,28.9,26.1,27.90,WNW,292,0.0,0.0,89,0.00,,---,0.00,VWS V14.01,2013-03-13 23:55:00,
2013-03-13 20:00:00,29.5,27.2,27.90,WNW,292,0.0,0.0,91,0.00,,---,0.00,VWS V14.01,2013-03-14 00:00:00,
2013-03-13 20:05:00,29.5,27.7,27.90,NNW,338,0.0,0.0,93,0.00,,---,0.00,VWS V14.01,2013-03-14 00:05:00,
2013-03-13 20:10:00,29.5,28.0,27.90,NNE,22,0.0,0.9,94,0.00,,---,0.00,VWS V14.01,2013-03-14 00:10:00,
2013-03-13 20:15:00,29.1,27.6,27.90,WNW,292,0.0,0.9,94,0.00,,---,0.00,VWS V14.01,2013-03-14 00:15:00,
2013-03-13 20:20:00,28.8,27.0,27.90,WNW,292,0.0,0.0,93,0.00,,---,0.00,VWS V14.01,2013-03-14 00:20:00,
2013-03-13 20:25:00,28.8,26.7,27.90,WSW,248,0.0,0.9,92,0.00,,---,0.00,VWS V14.01,2013-03-14 00:25:00,
2013-03-13 20:30:00,28.8,26.2,27.90,West,270,0.0,0.0,90,0.00,,---,0.00,VWS V14.01,2013-03-14 00:30:00,
2013-03-13 20:35:00,28.8,25.9,27.90,WNW,292,0.0,0.0,89,0.00,,---,0.00,VWS V14.01,2013-03-14 00:35:00,
2013-03-13 20:40:00,28.6,25.5,27.90,WNW,292,0.0,0.0,88,0.00,,---,0.00,VWS V14.01,2013-03-14 00:40:00,
2013-03-13 20:45:00,28.4,25.0,27.90,SE,135,0.0,0.0,87,0.00,,---,0.00,VWS V14.01,2013-03-14 00:45:00,
2013-03-13 20:50:00,28.4,24.8,27.90,North,0,0.0,0.0,86,0.00,,---,0.00,VWS V14.01,2013-03-14 00:50:00,
2013-03-13 20:55:00,28.6,24.4,27.90,SSE,158,0.0,0.0,84,0.00,,---,0.00,VWS V14.01,2013-03-14 00:55:00,
2013-03-13 21:00:00,28.4,23.9,27.90,WSW,248,0.0,0.0,83,0.00,,---,0.00,VWS V14.01,2013-03-14 01:00:00,
2013-03-13 21:05:00,28.4,23.6,27.90,WNW,292,0.0,0.0,82,0.00,,---,0.00,VWS V14.01,2013-03-14 01:05:00,
2013-03-13 21:10:00,28.4,23.0,27.90,West,270,0.0,0.0,80,0.00,,---,0.00,VWS V14.01,2013-03-14 01:10:00,
2013-03-13 21:15:00,28.6,22.9,27.90,NNW,338,0.0,0.0,79,0.00,,---,0.00,VWS V14.01,2013-03-14 01:15:00,
2013-03-13 21:20:00,28.6,22.6,27.90,WSW,248,2.9,2.9,78,0.00,,---,0.00,VWS V14.01,2013-03-14 01:20:00,
2013-03-13 21:25:00,28.6,22.6,27.90,WNW,292,0.0,0.0,78,0.00,,---,0.00,VWS V14.01,2013-03-14 01:25:00,
2013-03-13 21:30:00,28.4,22.4,27.90,NW,315,0.0,0.0,78,0.00,,---,0.00,VWS V14.01,2013-03-14 01:30:00,
2013-03-13 21:35:00,28.2,22.2,27.90,NW,315,0.0,0.0,78,0.00,,---,0.00,VWS V14.01,2013-03-14 01:35:00,
2013-03-13 21:40:00,28.2,22.2,27.90,WNW,292,0.0,0.0,78,0.00,,---,0.00,VWS V14.01,2013-03-14 01:40:00,
2013-03-13 21:45:00,28.2,22.2,27.90,NNW,338,0.0,0.0,78,0.00,,---,0.00,VWS V14.01,2013-03-14 01:45:00,
2013-03-13 21:50:00,28.4,22.7,27.90,NW,315,0.0,0.0,79,0.00,,---,0.00,VWS V14.01,2013-03-14 01:50:00,
2013-03-13 21:55:00,28.2,23.7,27.90,WNW,292,2.2,2.2,83,0.00,,---,0.00,VWS V14.01,2013-03-14 01:55:00,
2013-03-13 22:00:00,28.0,24.7,27.90,NNW,338,3.6,3.6,87,0.00,,---,0.00,VWS V14.01,2013-03-14 02:00:00,
2013-03-13 22:05:00,27.9,24.8,27.90,NW,315,0.0,0.0,88,0.00,,---,0.00,VWS V14.01,2013-03-14 02:05:00,
2013-03-13 22:10:00,27.9,25.0,27.90,NNW,338,0.0,0.0,89,0.00,,---,0.00,VWS V14.01,2013-03-14 02:10:00,
2013-03-13 22:15:00,27.9,25.3,27.90,NW,315,0.0,0.0,90,0.00,,---,0.00,VWS V14.01,2013-03-14 02:15:00,
2013-03-13 22:20:00,27.7,25.1,27.93,NW,315,0.0,1.1,90,0.00,,---,0.00,VWS V14.01,2013-03-14 02:20:00,
2013-03-13 22:25:00,27.5,25.2,27.93,NW,315,0.0,0.0,91,0.00,,---,0.00,VWS V14.01,2013-03-14 02:25:00,
2013-03-13 22:30:00,27.5,25.2,27.93,WNW,292,2.0,3.1,91,0.00,,---,0.00,VWS V14.01,2013-03-14 02:30:00,
2013-03-13 22:35:00,27.5,25.2,27.93,North,0,3.6,3.6,91,0.00,,---,0.00,VWS V14.01,2013-03-14 02:35:00,
2013-03-13 22:40:00,27.3,24.8,27.93,NNW,338,2.7,5.4,90,0.00,,---,0.00,VWS V14.01,2013-03-14 02:40:00,
2013-03-13 22:45:00,27.3,24.8,27.93,NNW,338,7.4,7.4,90,0.00,,---,0.00,VWS V14.01,2013-03-14 02:45:00,
2013-03-13 22:50:00,27.3,24.8,27.90,NW,315,4.0,4.0,90,0.00,,---,0.00,VWS V14.01,2013-03-14 02:50:00,
2013-03-13 22:55:00,27.1,24.6,27.90,North,0,5.6,5.6,90,0.00,,---,0.00,VWS V14.01,2013-03-14 02:55:00,
2013-03-13 23:00:00,27.3,24.8,27.90,NNW,338,5.6,5.6,90,0.00,,---,0.00,VWS V14.01,2013-03-14 03:00:00,
2013-03-13 23:05:00,27.1,24.6,27.93,NNW,338,5.4,5.6,90,0.00,,---,0.00,VWS V14.01,2013-03-14 03:05:00,
2013-03-13 23:10:00,27.0,24.4,27.93,NNW,338,5.4,7.2,90,0.00,,---,0.00,VWS V14.01,2013-03-14 03:10:00,
2013-03-13 23:15:00,26.8,24.5,27.93,WNW,292,3.4,3.6,91,0.00,,---,0.00,VWS V14.01,2013-03-14 03:15:00,
2013-03-13 23:20:00,26.8,24.5,27.90,NW,315,5.6,6.3,91,0.00,,---,0.00,VWS V14.01,2013-03-14 03:20:00,
2013-03-13 23:25:00,26.6,24.6,27.90,WNW,292,11.0,11.0,92,0.00,,---,0.00,VWS V14.01,2013-03-14 03:25:00,
2013-03-13 23:30:00,26.4,24.7,27.90,NW,315,4.9,7.2,93,0.00,,---,0.00,VWS V14.01,2013-03-14 03:30:00,
2013-03-13 23:35:00,26.2,24.0,27.90,NW,315,6.3,8.1,91,0.00,,---,0.00,VWS V14.01,2013-03-14 03:35:00,
2013-03-13 23:40:00,26.1,22.2,27.90,NNW,338,8.1,8.1,85,0.00,,---,0.00,VWS V14.01,2013-03-14 03:40:00,
2013-03-13 23:45:00,26.2,21.8,27.90,WNW,292,8.5,8.5,83,0.00,,---,0.00,VWS V14.01,2013-03-14 03:45:00,
2013-03-13 23:50:00,26.2,21.8,27.90,NNW,338,5.4,8.1,83,0.00,,---,0.00,VWS V14.01,2013-03-14 03:50:00,
2013-03-13 23:55:00,26.2,22.1,27.90,WNW,292,5.4,8.5,84,0.00,,---,0.00,VWS V14.01,2013-03-14 03:55:00,